Temperature
3 3 3 3 3 3 3 3 3 3 3 3 4 4 4 4 4 4 4 4 4 4 4 4 4 4 4 4 4 3 3 3 3 3 3 3 3 3
2 2 2 2 3 3 2 3 2 2 2 3 3 3 3 3 4 4 4 4 4 4 4 4 4 4 4 3 3 3 3 3 3 3 3 2 3 3
1 1 2 2 2 2 2 2 2 2 2 2 2 3 3 3 3 3 3 3 3 3 3 3 3 3 3 3 3 3 2 2 2 2 2 2 2 2
1 1 1 1 1 1 1 1 1 1 1 1 2 2 2 2 2 2 2 2 2 3 3 3 2 2 2 2 2 2 2 2 2 2 1 1 1 1
0 0 0 0 0 0 1 1 1 1 1 1 1 1 1 1 1 1 1 2 2 2 2 2 2 2 2 2 2 2 2 2 2 1 1 1 1 1
-0 -0 -0 -0 -0 -0 0 0 0 0 0 -0 -0 -0 -0 0 0 0 1 1 1 1 1 1 1 1 2 2 1 1 1 1 1 1 1 1 1 1
-1 -1 -1 -1 -1 -1 -0 -0 -0 -1 -1 -1 -1 -1 -1 -1 -1 -1 -0 -0 -0 -0 -0 0 0 0 1 1 1 1 1 1 1 1 0 0 0 0
-1 -1 -1 -1 -1 -1 -1 -1 -1 -1 -1 -1 -1 -1 -1 -1 -1 -1 -1 -1 -2 -1 -1 -1 -0 -0 -0 -0 -0 0 0 0 0 -0 -0 -0 -0 -0
-2 -2 -2 -2 -1 -1 -1 -1 -1 -1 -2 -2 -2 -2 -2 -2 -2 -2 -2 -2 -2 -2 -2 -1 -1 -1 -1 -1 -1 -1 -1 -0 -1 -1 -1 -1 -1 -1
-2 -2 -2 -2 -2 -2 -2 -2 -2 -2 -2 -2 -2 -2 -2 -2 -2 -2 -2 -2 -2 -2 -2 -2 -2 -2 -1 -1 -1 -1 -1 -1 -1 -1 -1 -1 -1 -1
-3 -2 -2 -2 -2 -2 -2 -3 -3 -3 -2 -2 -2 -2 -2 -2 -3 -3 -3 -3 -3 -3 -3 -3 -3 -2 -2 -2 -2 -2 -2 -2 -2 -2 -2 -1 -1 -1
-3 -3 -3 -3 -3 -3 -3 -3 -3 -3 -3 -3 -3 -3 -3 -3 -3 -3 -3 -3 -4 -4 -4 -3 -3 -4 -3 -3 -2 -2 -2 -2 -2 -2 -2 -2 -2 -2
-3 -3 -3 -3 -3 -3 -3 -3 -3 -3 -3 -3 -3 -3 -3 -3 -3 -3 -3 -4 -4 -4 -4 -4 -4 -4 -4 -4 -3 -3 -3 -3 -3 -2 -3 -3 -3 -2
-4 -4 -4 -4 -4 -3 -3 -4 -4 -4 -4 -3 -3 -4 -4 -4 -4 -4 -4 -4 -4 -4 -4 -4 -4 -4 -5 -5 -4 -3 -3 -3 -3 -3 -3 -3 -3 -3
-4 -4 -4 -4 -4 -4 -4 -4 -4 -4 -4 -4 -4 -4 -4 -4 -4 -4 -4 -4 -4 -4 -4 -5 -5 -5 -5 -5 -5 -4 -4 -4 -4 -4 -4 -3 -3 -3
-4 -4 -4 -4 -4 -4 -4 -4 -4 -4 -4 -4 -4 -4 -4 -4 -4 -4 -4 -4 -5 -5 -5 -5 -5 -5 -5 -5 -5 -4 -4 -4 -4 -4 -4 -4 -4 -4
-4 -5 -5 -5 -5 -5 -5 -5 -5 -5 -5 -5 -5 -5 -5 -5 -5 -5 -5 -5 -5 -5 -5 -5 -5 -5 -5 -5 -5 -5 -5 -5 -5 -4 -4 -4 -4 -4
-5 -5 -5 -5 -5 -5 -5 -5 -5 -5 -5 -5 -5 -5 -5 -5 -5 -5 -5 -5 -6 -6 -6 -5 -5 -5 -5 -5 -5 -5 -5 -5 -5 -5 -5 -5 -4 -4
-5 -5 -5 -5 -5 -5 -6 -6 -6 -6 -6 -6 -6 -6 -6 -6 -6 -6 -6 -6 -6 -6 -6 -6 -6 -6 -6 -6 -5 -5 -5 -5 -5 -5 -5 -5 -5 -5
-5 -5 -5 -6 -6 -6 -6 -6 -6 -6 -6 -6 -6 -6 -6 -6 -6 -6 -6 -6 -6 -6 -6 -6 -6 -6 -6 -6 -6 -5 -6 -6 -6 -6 -5 -5 -5 -5
-6 -6 -6 -6 -6 -6 -6 -6 -6 -6 -6 -6 -6 -6 -6 -6 -6 -6 -6 -6 -6 -7 -7 -6 -6 -6 -6 -6 -6 -6 -6 -6 -6 -6 -6 -6 -6 -5
-6 -6 -6 -6 -6 -6 -6 -6 -6 -6 -6 -7 -7 -7 -7 -7 -7 -7 -7 -7 -7 -7 -6 -6 -6 -6 -6 -6 -6 -6 -6 -6 -6 -6 -6 -6 -6 -6
-6 -6 -6 -6 -6 -7 -7 -7 -7 -7 -7 -7 -7 -7 -7 -7 -7 -7 -7 -7 -7 -7 -7 -6 -6 -6 -6 -6 -6 -6 -6 -6 -6 -6 -6 -6 -6 -6
Wind_Speed
3 3 3 3 3 3 3 4 4 4 4 3 2 2 2 3 3 4 4 3 4 5 5 5 5 6 7 7 8 9 9 9 10 11 11 12 13 14
3 4 4 3 3 3 3 4 4 4 5 3 3 2 3 3 4 4 4 4 4 4 4 5 5 6 6 7 8 8 8 9 10 11 12 12 12 13
4 4 4 4 4 4 4 4 4 4 6 5 3 3 4 3 4 4 4 4 4 3 4 5 5 6 6 7 8 8 9 10 10 11 12 13 13 13
5 5 5 4 5 5 4 5 4 5 6 6 4 3 4 4 4 4 4 4 4 4 5 6 6 6 6 7 8 8 9 10 11 11 12 13 13 13
5 5 5 5 5 5 5 5 4 4 4 5 5 4 3 3 4 4 4 4 4 5 5 5 6 6 7 8 8 9 9 10 10 11 11 12 12 13
5 5 5 5 5 5 5 5 4 4 4 5 4 4 3 3 3 3 3 3 3 4 5 5 6 7 8 8 8 8 8 9 9 10 11 11 11 12
4 4 4 4 5 5 4 4 4 4 4 5 5 4 4 3 3 3 4 4 4 3 4 4 5 5 6 6 7 7 8 9 9 10 10 11 11 12
4 4 3 4 4 5 6 5 4 5 5 5 5 5 6 5 4 3 3 3 4 2 4 5 5 5 5 5 6 7 8 8 9 10 10 11 11 12
4 3 3 3 4 4 4 4 4 5 7 7 7 7 6 5 4 5 4 5 5 4 5 5 5 5 5 5 6 7 7 8 9 9 10 11 11 11
3 4 4 4 4 4 4 4 4 5 6 6 6 6 6 5 5 5 5 5 5 4 4 5 5 5 6 6 5 6 7 8 9 9 11 11 11 11
3 3 3 4 3 3 4 4 4 4 4 5 6 5 6 6 5 3 3 3 4 4 3 3 4 6 6 5 4 6 7 9 9 10 11 11 11 10
3 3 3 4 4 4 4 4 4 4 4 4 4 4 4 4 4 5 4 4 4 4 3 3 4 4 4 4 4 5 6 7 9 10 10 10 10 7
2 2 3 3 4 5 4 4 4 4 4 4 4 4 3 3 3 3 4 4 5 5 3 3 4 4 4 4 5 5 5 5 6 7 8 8 9 7
3 3 3 4 5 5 4 3 3 4 3 3 3 3 3 3 3 3 4 4 5 6 6 5 4 5 5 6 5 5 6 6 5 5 5 7 8 8
2 3 3 4 4 4 3 3 3 2 2 3 3 3 3 3 3 3 3 3 4 4 5 6 5 5 5 6 6 6 6 5 5 4 5 5 6 6
2 2 3 3 3 3 2 2 2 2 2 3 2 3 2 2 3 3 3 2 3 3 3 4 5 5 6 7 6 6 5 4 4 5 5 5 6 5
2 2 2 2 2 2 2 2 1 1 2 2 2 2 2 2 2 2 2 3 3 4 4 3 3 4 5 6 5 5 5 4 4 4 5 5 5 5
1 1 2 2 2 2 2 2 2 2 2 2 2 2 2 2 2 2 2 2 3 3 3 3 3 3 3 3 4 5 4 4 4 4 4 5 5 5
1 1 2 2 2 2 2 2 2 2 2 2 2 2 2 2 2 2 2 2 3 3 3 3 3 3 4 4 3 3 4 4 4 4 4 4 5 6
1 1 2 2 2 2 2 2 2 2 2 2 2 2 2 2 2 3 3 3 3 3 4 3 3 3 4 4 4 4 5 4 4 4 4 5 5 6
2 2 2 2 2 1 2 2 2 2 2 2 2 2 2 2 2 3 3 3 3 3 4 4 4 4 3 2 3 3 4 5 5 4 4 4 4 4
2 2 2 2 2 2 2 2 2 2 2 2 2 2 2 2 2 3 3 3 3 3 4 3 3 2 2 2 3 4 4 5 5 5 5 4 3 3
2 2 2 2 2 2 2 2 2 2 2 2 2 2 2 2 2 2 3 3 3 3 3 3 3 2 2 2 3 3 4 4 4 4 4 4 5 5
Wind_Direction
246 244 245 250 252 248 245 240 246 253 247 235 233 238 275 279 277 275 274 285 289 290 287 287 291 293 292 292 290 289 290 292 294 294 293 293 292 294
247 245 246 244 239 241 240 241 244 252 257 251 257 283 292 291 288 278 270 272 266 279 285 289 294 293 291 293 296 290 288 288 291 293 290 290 293 296
249 247 250 249 242 240 235 235 239 246 253 261 262 273 282 281 292 289 279 277 270 271 283 283 287 290 289 292 293 291 286 287 289 290 290 291 291 293
254 250 248 245 242 243 238 236 238 246 250 258 265 269 277 281 287 288 294 288 277 272 275 275 274 276 281 287 289 289 287 288 290 290 289 290 292 292
255 252 247 242 241 239 236 236 237 241 248 251 259 267 274 275 285 288 291 292 290 277 270 267 269 273 279 282 285 288 290 290 289 290 291 292 292 295
253 252 250 245 243 240 237 235 235 237 244 247 248 256 264 270 268 279 291 294 299 298 288 275 270 269 271 277 281 284 288 292 293 293 293 294 294 296
253 254 255 257 257 248 242 238 235 238 241 248 247 257 261 256 262 279 281 298 302 297 301 295 289 283 280 274 278 284 289 293 296 295 295 295 294 295
260 264 262 253 254 248 247 250 247 245 245 248 249 247 254 263 274 262 270 285 292 299 306 304 302 292 293 290 292 292 291 293 296 299 296 294 293 295
262 264 268 264 263 250 242 242 249 257 256 253 256 252 257 259 264 259 258 272 283 292 301 295 299 298 299 296 299 296 298 298 298 300 301 299 297 295
273 270 270 270 265 249 244 243 248 255 258 255 256 262 262 260 255 259 268 283 289 287 286 283 298 301 307 301 293 296 305 307 304 302 302 302 299 296
282 278 272 273 271 254 253 251 256 266 267 262 264 269 275 270 262 252 257 264 280 290 294 282 296 308 302 292 293 293 299 302 303 303 305 305 304 302
276 275 274 277 278 266 257 258 262 269 268 267 266 260 260 258 252 252 247 246 269 278 282 289 292 309 299 293 304 307 301 296 298 302 304 305 308 306
269 274 278 279 278 275 271 269 268 270 265 263 265 265 260 257 261 268 264 252 255 264 270 286 283 289 281 292 300 300 300 305 308 308 304 306 309 306
268 271 276 279 282 280 277 274 283 281 263 259 264 270 266 268 275 282 282 280 272 267 265 273 274 279 285 290 289 295 304 308 308 311 319 317 310 302
279 284 292 297 296 288 277 275 274 272 267 264 265 275 278 277 279 282 289 291 292 283 271 270 265 269 274 275 279 287 301 306 306 310 317 317 315 315
286 285 288 294 296 303 300 282 275 276 274 273 282 288 284 275 270 271 277 289 295 300 299 282 275 272 272 272 270 275 284 290 302 310 314 312 313 312
293 280 282 286 290 293 298 288 282 278 276 278 284 289 293 290 283 281 277 284 282 287 299 309 309 296 279 270 267 269 281 293 297 307 312 311 310 313
284 272 278 283 287 292 295 306 306 294 288 289 282 280 282 282 285 287 283 277 280 285 291 300 310 316 307 290 256 266 282 294 302 307 307 305 308 316
264 281 286 286 293 297 298 302 302 301 296 282 280 277 274 270 271 275 274 274 280 283 287 288 288 289 294 300 301 268 282 296 303 306 304 301 301 309
317 306 303 302 298 298 303 309 307 301 289 281 279 276 272 272 271 269 265 267 278 285 288 289 286 283 281 288 292 299 297 290 295 297 302 304 302 301
340 330 321 313 304 300 303 301 297 295 294 292 285 279 273 271 274 277 275 274 277 279 284 291 299 301 294 288 285 296 317 322 307 295 297 300 306 309
337 331 327 323 319 308 297 294 298 297 296 291 290 288 282 272 271 275 273 270 273 279 289 296 301 302 295 275 286 298 313 328 338 332 312 296 300 298
326 323 322 323 323 319 308 299 295 293 293 293 291 291 290 283 276 272 271 271 275 280 287 297 308 316 307 290 292 299 309 325 335 344 342 339 321 303
Height
1477 1478 1478 1479 1480 1481 1482 1483 1484 1483 1483 1482 1482 1482 1482 1482 1482 1482 1482 1482 1482 1482 1481 1481 1481 1480 1480 1479 1479 1478 1478 1477 1476 1475 1474 1473 1472 1471
1474 1474 1475 1475 1476 1477 1478 1479 1479 1480 1479 1478 1479 1479 1478 1478 1479 1478 1478 1478 1478 1477 1476 1476 1476 1475 1475 1474 1474 1473 1472 1471 1471 1470 1469 1468 1467 1466
1470 1471 1471 1471 1472 1473 1473 1474 1475 1475 1475 1475 1475 1475 1475 1475 1475 1475 1474 1474 1473 1473 1472 1471 1471 1471 1470 1469 1469 1468 1467 1466 1466 1465 1464 1463 1462 1461
1467 1467 1467 1468 1468 1469 1469 1470 1471 1471 1471 1471 1471 1471 1471 1471 1471 1471 1470 1469 1469 1468 1468 1467 1466 1466 1465 1464 1464 1463 1462 1461 1460 1459 1458 1457 1456 1455
1464 1464 1464 1464 1464 1465 1465 1466 1467 1467 1467 1467 1466 1467 1467 1467 1467 1466 1466 1465 1465 1464 1463 1462 1462 1461 1461 1460 1459 1458 1457 1456 1455 1454 1453 1451 1451 1450
1460 1460 1460 1460 1461 1461 1461 1462 1463 1463 1463 1463 1463 1462 1463 1463 1463 1462 1462 1461 1461 1460 1459 1458 1457 1456 1456 1455 1454 1453 1452 1451 1449 1448 1447 1446 1445 1444
1457 1457 1457 1457 1457 1458 1458 1458 1459 1459 1459 1459 1459 1459 1459 1459 1459 1458 1458 1457 1456 1456 1455 1454 1453 1452 1451 1450 1449 1448 1447 1446 1445 1444 1442 1441 1440 1439
1453 1453 1453 1454 1454 1454 1454 1455 1455 1456 1456 1456 1455 1455 1455 1455 1455 1455 1454 1453 1452 1453 1452 1450 1449 1447 1446 1446 1444 1443 1442 1441 1440 1439 1438 1437 1435 1434
1451 1451 1450 1450 1450 1450 1451 1451 1451 1452 1452 1452 1451 1451 1451 1451 1451 1451 1451 1450 1449 1448 1448 1446 1445 1443 1443 1441 1441 1440 1438 1437 1436 1435 1434 1432 1431 1429
1448 1448 1448 1447 1447 1447 1447 1447 1447 1448 1447 1447 1447 1447 1448 1448 1448 1448 1447 1446 1446 1445 1444 1443 1441 1440 1439 1438 1437 1436 1435 1433 1432 1431 1429 1428 1426 1425
1446 1445 1445 1445 1445 1444 1444 1444 1444 1444 1444 1444 1444 1443 1443 1444 1444 1443 1443 1443 1441 1441 1441 1440 1438 1436 1435 1434 1434 1433 1431 1430 1429 1427 1425 1424 1422 1420
1444 1443 1443 1442 1442 1442 1441 1441 1440 1440 1441 1440 1440 1440 1440 1440 1440 1440 1439 1439 1438 1438 1437 1437 1435 1434 1432 1431 1431 1429 1428 1427 1425 1423 1421 1420 1418 1416
1441 1441 1440 1440 1440 1439 1439 1438 1438 1438 1437 1437 1437 1436 1436 1436 1436 1436 1436 1436 1435 1434 1434 1434 1432 1431 1430 1428 1426 1426 1425 1423 1421 1419 1418 1416 1414 1412
1439 1439 1438 1438 1437 1437 1436 1436 1436 1435 1435 1434 1434 1433 1433 1433 1433 1433 1432 1432 1432 1431 1430 1430 1429 1428 1427 1425 1424 1422 1422 1420 1418 1416 1415 1413 1411 1409
1437 1436 1436 1435 1435 1434 1433 1433 1433 1432 1432 1431 1431 1431 1430 1430 1430 1429 1429 1428 1428 1427 1427 1427 1426 1426 1425 1423 1421 1419 1418 1416 1415 1413 1412 1410 1408 1406
1434 1434 1433 1433 1432 1431 1431 1430 1430 1430 1429 1429 1428 1428 1428 1427 1427 1426 1426 1425 1424 1424 1424 1424 1423 1422 1421 1420 1418 1416 1415 1414 1412 1411 1409 1407 1406 1404
1432 1432 1431 1430 1430 1429 1428 1428 1427 1427 1426 1426 1426 1425 1425 1424 1424 1424 1423 1422 1422 1421 1420 1420 1420 1419 1418 1417 1415 1414 1413 1411 1410 1408 1406 1404 1403 1402
1431 1430 1429 1428 1428 1427 1426 1425 1425 1425 1424 1424 1424 1423 1422 1422 1421 1421 1421 1420 1419 1418 1418 1417 1416 1415 1415 1413 1413 1411 1410 1408 1407 1406 1404 1402 1400 1400
1429 1428 1427 1427 1426 1425 1424 1424 1423 1423 1422 1422 1421 1421 1420 1419 1419 1418 1418 1418 1417 1416 1416 1415 1414 1413 1412 1410 1410 1409 1408 1406 1405 1403 1402 1401 1399 1397
1427 1427 1426 1425 1424 1424 1423 1423 1422 1421 1421 1420 1420 1419 1418 1417 1417 1416 1416 1415 1415 1414 1413 1413 1412 1411 1410 1409 1407 1406 1406 1404 1403 1401 1400 1399 1397 1396
1426 1425 1425 1424 1423 1423 1422 1421 1421 1420 1419 1419 1418 1417 1416 1415 1415 1414 1414 1413 1413 1412 1411 1410 1410 1409 1408 1407 1406 1404 1404 1403 1401 1400 1398 1396 1394 1393
1425 1424 1424 1423 1422 1421 1421 1420 1419 1418 1418 1417 1416 1415 1414 1414 1413 1412 1412 1411 1410 1410 1409 1408 1408 1407 1406 1405 1404 1402 1401 1401 1400 1398 1397 1396 1394 1391
1424 1423 1422 1422 1421 1420 1419 1419 1418 1417 1416 1415 1414 1413 1413 1412 1411 1411 1410 1409 1408 1408 1407 1406 1405 1405 1404 1404 1402 1401 1400 1399 1397 1396 1395 1394 1393 1391